Hourly Data Report for September 08, 2006

TORONTO CITY
ONTARIO

43°40'00.000" N
79°24'00.000" W
112.50 m
6158355
71508
XTO

Download Data

Hourly Data (September 2006)
Hourly Data Report for September 8, 2006
TIME
LST
Temp Definition
°C
Dew Point Definition
°C
Rel Hum Definition
%
Precip. Amount Definition
mm

Wind Dir Definition
10's deg

Wind Spd Definition
km/h
Visibility Definition
km
Stn Press Definition
kPa
Hmdx Definition


Wind Chill Definition


Weather Definition


00:00 17.4 14.2 81   LegendMM LegendMM   100.22     LegendNANA
01:00 18.0 13.9 77   LegendMM LegendMM   100.19     LegendNANA
02:00 16.8 13.9 83   LegendMM LegendMM   100.17     LegendNANA
03:00 16.1 14.1 88   LegendMM LegendMM   100.18     LegendNANA
04:00 16.4 15.1 92   LegendMM LegendMM   100.17     LegendNANA
05:00 16.1 15.4 96   LegendMM LegendMM   100.19     LegendNANA
06:00 17.4 17.1 98   LegendMM LegendMM   100.19     LegendNANA
07:00 18.7 18.0 96   LegendMM LegendMM   100.20     LegendNANA
08:00 19.5 17.7 89   LegendMM LegendMM   100.20     LegendNANA
09:00 20.8 18.0 84   LegendMM LegendMM   100.23 27   LegendNANA
10:00 22.6 19.5 83   LegendMM LegendMM   100.25 30   LegendNANA
11:00 24.5 19.4 73   LegendMM LegendMM   100.21 32   LegendNANA
12:00 25.8 19.2 67   LegendMM LegendMM   100.14 33   LegendNANA
13:00 24.9 18.7 68   LegendMM LegendMM   100.07 31   LegendNANA
14:00 26.6 18.3 60   LegendMM LegendMM   99.99 33   LegendNANA
15:00 26.4 18.3 61   LegendMM LegendMM   99.92 33   LegendNANA
16:00 25.5 18.1 64   LegendMM LegendMM   99.88 32   LegendNANA
17:00 24.9 17.7 64   LegendMM LegendMM   99.87 31   LegendNANA
18:00 24.6 17.6 65   LegendMM LegendMM   99.92 30   LegendNANA
19:00 23.4 17.3 69   LegendMM LegendMM   99.92 29   LegendNANA
20:00 22.5 17.6 74   LegendMM LegendMM   99.91 28   LegendNANA
21:00 22.4 17.2 72   LegendMM LegendMM   99.93 28   LegendNANA
22:00 21.6 15.4 68   LegendMM LegendMM   100.04 26   LegendNANA
23:00 18.5 17.4 93   LegendMM LegendMM   100.06     LegendNANA

Notes on Data Quality.

Legend

  • E = Estimated
  • M = Missing
  • NA = Not Available*
  • [empty] = Indicates an unobserved value
Date modified: